owner,sensor,date,latitude,longitude,vertical_datum,direction_of_sea_water_velocity,sea_water_speed,upward_sea_water_velocity,qcFlag 
TABS,ioos:station:wmo:42051:1,1999-09-01T00:00:00Z,29.6350,-93.6417,2.0,287.8014901,13.14955513,-99999.0,'11111222,11111222,99999999' 
TABS,ioos:station:wmo:42051:1,1999-09-01T00:30:00Z,29.6350,-93.6417,2.0,254.3083719,9.909288572,-99999.0,'11133222,11111222,99999999' 
TABS,ioos:station:wmo:42051:1,1999-09-01T01:00:00Z,29.6350,-93.6417,2.0,216.331929,12.57455367,-99999.0,'11111222,11111222,99999999' 
TABS,ioos:station:wmo:42051:1,1999-09-01T01:30:00Z,29.6350,-93.6417,2.0,189.7291754,26.45044045,-99999.0,'11111222,11111222,99999999' 
TABS,ioos:station:wmo:42051:1,1999-09-01T02:00:00Z,29.6350,-93.6417,2.0,237.2431417,12.93732584,-99999.0,'11111222,11111222,99999999' 
TABS,ioos:station:wmo:42051:1,1999-09-01T02:30:00Z,29.6350,-93.6417,2.0,245.294185,10.33607759,-99999.0,'11111222,11111222,99999999' 
TABS,ioos:station:wmo:42051:1,1999-09-01T03:00:00Z,29.6350,-93.6417,2.0,246.9943167,18.29502938,-99999.0,'11111222,11111222,99999999' 
TABS,ioos:station:wmo:42051:1,1999-09-01T03:30:00Z,29.6350,-93.6417,2.0,234.8076848,20.42275691,-99999.0,'11111222,11111222,99999999' 
TABS,ioos:station:wmo:42051:1,1999-09-01T04:00:00Z,29.6350,-93.6417,2.0,227.3098154,18.24404012,-99999.0,'11111222,11111222,99999999' 
TABS,ioos:station:wmo:42051:1,1999-09-01T04:30:00Z,29.6350,-93.6417,2.0,221.7484886,18.57731143,-99999.0,'11111222,11111222,99999999' 
TABS,ioos:station:wmo:42051:1,1999-09-01T05:00:00Z,29.6350,-93.6417,2.0,244.4117291,12.06310491,-99999.0,'11111222,11111222,99999999' 
TABS,ioos:station:wmo:42051:1,1999-09-01T05:30:00Z,29.6350,-93.6417,2.0,271.5176083,16.99595834,-99999.0,'11111222,11111222,99999999' 
TABS,ioos:station:wmo:42051:1,1999-09-01T06:00:00Z,29.6350,-93.6417,2.0,243.1504817,13.52837758,-99999.0,'11111222,11111222,99999999' 
TABS,ioos:station:wmo:42051:1,1999-09-01T06:30:00Z,29.6350,-93.6417,2.0,255.6509116,20.45818418,-99999.0,'11111222,11111222,99999999' 
TABS,ioos:station:wmo:42051:1,1999-09-01T07:00:00Z,29.6350,-93.6417,2.0,235.8529397,15.6596839,-99999.0,'11111222,11111222,99999999' 
TABS,ioos:station:wmo:42051:1,1999-09-01T07:30:00Z,29.6350,-93.6417,2.0,239.7545955,14.49277061,-99999.0,'11111222,11111222,99999999' 
TABS,ioos:station:wmo:42051:1,1999-09-01T08:00:00Z,29.6350,-93.6417,2.0,235.1251246,17.97890152,-99999.0,'11111222,11111222,99999999' 
TABS,ioos:station:wmo:42051:1,1999-09-01T08:30:00Z,29.6350,-93.6417,2.0,241.5126386,20.00169993,-99999.0,'11111222,11111222,99999999' 
TABS,ioos:station:wmo:42051:1,1999-09-01T09:00:00Z,29.6350,-93.6417,2.0,266.5252989,17.16154131,-99999.0,'11111222,11111222,99999999' 
TABS,ioos:station:wmo:42051:1,1999-09-01T09:30:00Z,29.6350,-93.6417,2.0,259.4150307,21.06848357,-99999.0,'11111222,11111222,99999999' 
TABS,ioos:station:wmo:42051:1,1999-09-01T10:00:00Z,29.6350,-93.6417,2.0,254.658414,15.76162745,-99999.0,'11111222,11111222,99999999' 
TABS,ioos:station:wmo:42051:1,1999-09-01T10:30:00Z,29.6350,-93.6417,2.0,252.0385446,16.44124387,-99999.0,'11111222,11111222,99999999' 
TABS,ioos:station:wmo:42051:1,1999-09-01T11:00:00Z,29.6350,-93.6417,2.0,231.0257761,21.08221288,-99999.0,'11111222,11111222,99999999' 
TABS,ioos:station:wmo:42051:1,1999-09-01T11:30:00Z,29.6350,-93.6417,2.0,251.5559353,20.73505486,-99999.0,'11111222,11111222,99999999' 
TABS,ioos:station:wmo:42051:1,1999-09-01T12:00:00Z,29.6350,-93.6417,2.0,244.1754048,30.78428495,-99999.0,'11111222,11111222,99999999' 
TABS,ioos:station:wmo:42051:1,1999-09-01T12:30:00Z,29.6350,-93.6417,2.0,238.5125874,30.23131654,-99999.0,'11111222,11111222,99999999' 
TABS,ioos:station:wmo:42051:1,1999-09-01T13:00:00Z,29.6350,-93.6417,2.0,229.3239211,16.69281282,-99999.0,'11111222,11111222,99999999' 
TABS,ioos:station:wmo:42051:1,1999-09-01T13:30:00Z,29.6350,-93.6417,2.0,245.709674,18.47554059,-99999.0,'11111222,11111222,99999999' 
TABS,ioos:station:wmo:42051:1,1999-09-01T14:00:00Z,29.6350,-93.6417,2.0,258.2049685,20.40073038,-99999.0,'11111222,11111222,99999999' 
TABS,ioos:station:wmo:42051:1,1999-09-01T14:30:00Z,29.6350,-93.6417,2.0,243.6321604,19.45390706,-99999.0,'11111222,11111222,99999999' 
TABS,ioos:station:wmo:42051:1,1999-09-01T15:00:00Z,29.6350,-93.6417,2.0,227.6066232,20.98743672,-99999.0,'11111222,11111222,99999999' 
TABS,ioos:station:wmo:42051:1,1999-09-01T15:30:00Z,29.6350,-93.6417,2.0,234.8779485,26.42029712,-99999.0,'11111222,11111222,99999999' 
TABS,ioos:station:wmo:42051:1,1999-09-01T16:00:00Z,29.6350,-93.6417,2.0,232.4984362,21.78132227,-99999.0,'11111222,11111222,99999999' 
TABS,ioos:station:wmo:42051:1,1999-09-01T16:30:00Z,29.6350,-93.6417,2.0,245.1967951,21.66880246,-99999.0,'11111222,11111222,99999999' 
TABS,ioos:station:wmo:42051:1,1999-09-01T17:00:00Z,29.6350,-93.6417,2.0,239.9370498,26.17049102,-99999.0,'11111222,11111222,99999999' 
TABS,ioos:station:wmo:42051:1,1999-09-01T17:30:00Z,29.6350,-93.6417,2.0,243.2664037,22.85271319,-99999.0,'11111222,11111222,99999999' 
TABS,ioos:station:wmo:42051:1,1999-09-01T18:00:00Z,29.6350,-93.6417,2.0,249.0202539,21.22716185,-99999.0,'11111222,11111222,99999999' 
TABS,ioos:station:wmo:42051:1,1999-09-01T18:30:00Z,29.6350,-93.6417,2.0,241.4158665,17.1389177,-99999.0,'11111222,11111222,99999999' 
TABS,ioos:station:wmo:42051:1,1999-09-01T19:00:00Z,29.6350,-93.6417,2.0,242.1155155,20.39834552,-99999.0,'11111222,11111222,99999999' 
TABS,ioos:station:wmo:42051:1,1999-09-01T19:30:00Z,29.6350,-93.6417,2.0,251.4155957,18.23059242,-99999.0,'11111222,11111222,99999999' 
TABS,ioos:station:wmo:42051:1,1999-09-01T20:00:00Z,29.6350,-93.6417,2.0,256.2283472,16.25733681,-99999.0,'11111222,11111222,99999999' 
TABS,ioos:station:wmo:42051:1,1999-09-01T20:30:00Z,29.6350,-93.6417,2.0,265.8028563,22.41008925,-99999.0,'11111222,11111222,99999999' 
TABS,ioos:station:wmo:42051:1,1999-09-01T21:00:00Z,29.6350,-93.6417,2.0,256.6876844,17.45910937,-99999.0,'11111222,11111222,99999999' 
TABS,ioos:station:wmo:42051:1,1999-09-01T21:30:00Z,29.6350,-93.6417,2.0,262.4306604,14.72832645,-99999.0,'11111222,11111222,99999999' 
TABS,ioos:station:wmo:42051:1,1999-09-01T22:00:00Z,29.6350,-93.6417,2.0,261.063549,16.28769474,-99999.0,'11111222,11111222,99999999' 
TABS,ioos:station:wmo:42051:1,1999-09-01T22:30:00Z,29.6350,-93.6417,2.0,256.5449801,14.09689682,-99999.0,'11111222,11111222,99999999' 
TABS,ioos:station:wmo:42051:1,1999-09-01T23:00:00Z,29.6350,-93.6417,2.0,258.0778709,18.73408124,-99999.0,'11111222,11111222,99999999' 
TABS,ioos:station:wmo:42051:1,1999-09-01T23:30:00Z,29.6350,-93.6417,2.0,255.9633684,17.8118163,-99999.0,'11111222,11111222,99999999' 
TABS,ioos:station:wmo:42051:1,1999-09-02T00:00:00Z,29.6350,-93.6417,2.0,246.7397067,19.6250707,-99999.0,'11111222,11111222,99999999' 
TABS,ioos:station:wmo:42051:1,1999-09-02T00:30:00Z,29.6350,-93.6417,2.0,248.5892221,24.49007146,-99999.0,'11111222,11111222,99999999' 
TABS,ioos:station:wmo:42051:1,1999-09-02T01:00:00Z,29.6350,-93.6417,2.0,240.9495769,24.54827896,-99999.0,'11111222,11111222,99999999' 
TABS,ioos:station:wmo:42051:1,1999-09-02T01:30:00Z,29.6350,-93.6417,2.0,257.940937,19.96044338,-99999.0,'11111222,11111222,99999999' 
TABS,ioos:station:wmo:42051:1,1999-09-02T02:00:00Z,29.6350,-93.6417,2.0,246.0428108,20.53943767,-99999.0,'11111222,11111222,99999999' 
TABS,ioos:station:wmo:42051:1,1999-09-02T02:30:00Z,29.6350,-93.6417,2.0,249.3052225,22.7797849,-99999.0,'11111222,11111222,99999999' 
TABS,ioos:station:wmo:42051:1,1999-09-02T03:00:00Z,29.6350,-93.6417,2.0,246.6305206,20.29481214,-99999.0,'11111222,11111222,99999999' 
TABS,ioos:station:wmo:42051:1,1999-09-02T03:30:00Z,29.6350,-93.6417,2.0,242.4569435,19.65789918,-99999.0,'11111222,11111222,99999999' 
TABS,ioos:station:wmo:42051:1,1999-09-02T04:00:00Z,29.6350,-93.6417,2.0,235.739541,20.90768519,-99999.0,'11111222,11111222,99999999' 
TABS,ioos:station:wmo:42051:1,1999-09-02T04:30:00Z,29.6350,-93.6417,2.0,241.2698477,21.07432798,-99999.0,'11111222,11111222,99999999' 
TABS,ioos:station:wmo:42051:1,1999-09-02T05:00:00Z,29.6350,-93.6417,2.0,232.2952718,18.26393714,-99999.0,'11111222,11111222,99999999' 
TABS,ioos:station:wmo:42051:1,1999-09-02T05:30:00Z,29.6350,-93.6417,2.0,236.7767795,14.96630883,-99999.0,'11111222,11111222,99999999' 
TABS,ioos:station:wmo:42051:1,1999-09-02T06:00:00Z,29.6350,-93.6417,2.0,241.480034,15.60341629,-99999.0,'11111222,11111222,99999999' 
TABS,ioos:station:wmo:42051:1,1999-09-02T06:30:00Z,29.6350,-93.6417,2.0,234.1633101,19.84722903,-99999.0,'11111222,11111222,99999999' 
TABS,ioos:station:wmo:42051:1,1999-09-02T07:00:00Z,29.6350,-93.6417,2.0,245.262554,23.13271493,-99999.0,'11111222,11111222,99999999' 
TABS,ioos:station:wmo:42051:1,1999-09-02T07:30:00Z,29.6350,-93.6417,2.0,244.9474077,22.52952951,-99999.0,'11111222,11111222,99999999' 
TABS,ioos:station:wmo:42051:1,1999-09-02T08:00:00Z,29.6350,-93.6417,2.0,243.4225733,21.3231447,-99999.0,'11111222,11111222,99999999' 
TABS,ioos:station:wmo:42051:1,1999-09-02T08:30:00Z,29.6350,-93.6417,2.0,244.5615721,20.46398055,-99999.0,'11111222,11111222,99999999' 
TABS,ioos:station:wmo:42051:1,1999-09-02T09:00:00Z,29.6350,-93.6417,2.0,239.9793832,23.22577232,-99999.0,'11111222,11111222,99999999' 
TABS,ioos:station:wmo:42051:1,1999-09-02T09:30:00Z,29.6350,-93.6417,2.0,242.5191583,16.79501414,-99999.0,'11111222,11111222,99999999' 
TABS,ioos:station:wmo:42051:1,1999-09-02T10:00:00Z,29.6350,-93.6417,2.0,238.2680611,13.30948534,-99999.0,'11111222,11111222,99999999' 
TABS,ioos:station:wmo:42051:1,1999-09-02T10:30:00Z,29.6350,-93.6417,2.0,231.8680104,17.62027242,-99999.0,'11111222,11111222,99999999' 
TABS,ioos:station:wmo:42051:1,1999-09-02T11:00:00Z,29.6350,-93.6417,2.0,246.856608,18.95540556,-99999.0,'11111222,11111222,99999999' 
TABS,ioos:station:wmo:42051:1,1999-09-02T11:30:00Z,29.6350,-93.6417,2.0,246.2911086,17.40929637,-99999.0,'11111222,11111222,99999999' 
TABS,ioos:station:wmo:42051:1,1999-09-02T12:00:00Z,29.6350,-93.6417,2.0,244.9089067,15.46976729,-99999.0,'11111222,11111222,99999999' 
TABS,ioos:station:wmo:42051:1,1999-09-02T12:30:00Z,29.6350,-93.6417,2.0,264.8851965,11.66644762,-99999.0,'11111222,11111222,99999999' 
TABS,ioos:station:wmo:42051:1,1999-09-02T13:00:00Z,29.6350,-93.6417,2.0,220.9121242,14.78077468,-99999.0,'11111222,11111222,99999999' 
TABS,ioos:station:wmo:42051:1,1999-09-02T13:30:00Z,29.6350,-93.6417,2.0,231.9190156,21.0126914,-99999.0,'11111222,11111222,99999999' 
TABS,ioos:station:wmo:42051:1,1999-09-02T14:00:00Z,29.6350,-93.6417,2.0,233.2548184,25.65806111,-99999.0,'11111222,11111222,99999999' 
TABS,ioos:station:wmo:42051:1,1999-09-02T14:30:00Z,29.6350,-93.6417,2.0,233.4542721,25.77841345,-99999.0,'11111222,11111222,99999999' 
TABS,ioos:station:wmo:42051:1,1999-09-02T15:00:00Z,29.6350,-93.6417,2.0,238.753986,26.14184576,-99999.0,'11111222,11111222,99999999' 
TABS,ioos:station:wmo:42051:1,1999-09-02T15:30:00Z,29.6350,-93.6417,2.0,243.4435327,28.65297541,-99999.0,'11111222,11111222,99999999' 
TABS,ioos:station:wmo:42051:1,1999-09-02T16:00:00Z,29.6350,-93.6417,2.0,241.3358946,32.60585377,-99999.0,'11111222,11111222,99999999' 
TABS,ioos:station:wmo:42051:1,1999-09-02T16:30:00Z,29.6350,-93.6417,2.0,241.5078873,29.66255889,-99999.0,'11111222,11111222,99999999' 
TABS,ioos:station:wmo:42051:1,1999-09-02T17:00:00Z,29.6350,-93.6417,2.0,242.0295427,26.99298427,-99999.0,'11111222,11111222,99999999' 
TABS,ioos:station:wmo:42051:1,1999-09-02T17:30:00Z,29.6350,-93.6417,2.0,248.5477673,27.69883211,-99999.0,'11111222,11111222,99999999' 
TABS,ioos:station:wmo:42051:1,1999-09-02T18:00:00Z,29.6350,-93.6417,2.0,255.3135301,25.87536473,-99999.0,'11111222,11111222,99999999' 
TABS,ioos:station:wmo:42051:1,1999-09-02T18:30:00Z,29.6350,-93.6417,2.0,253.7903135,22.96280906,-99999.0,'11111222,11111222,99999999' 
TABS,ioos:station:wmo:42051:1,1999-09-02T19:00:00Z,29.6350,-93.6417,2.0,260.4281891,24.17655889,-99999.0,'11111222,11111222,99999999' 
TABS,ioos:station:wmo:42051:1,1999-09-02T19:30:00Z,29.6350,-93.6417,2.0,247.0016804,22.49818215,-99999.0,'11111222,11111222,99999999' 
TABS,ioos:station:wmo:42051:1,1999-09-02T20:00:00Z,29.6350,-93.6417,2.0,264.4092358,19.91471818,-99999.0,'11111222,11111222,99999999' 
TABS,ioos:station:wmo:42051:1,1999-09-02T20:30:00Z,29.6350,-93.6417,2.0,267.1969143,18.20177189,-99999.0,'11111222,11111222,99999999' 
TABS,ioos:station:wmo:42051:1,1999-09-02T21:00:00Z,29.6350,-93.6417,2.0,278.6803811,19.74615912,-99999.0,'11111222,11111222,99999999' 
TABS,ioos:station:wmo:42051:1,1999-09-02T21:30:00Z,29.6350,-93.6417,2.0,288.8779451,18.42081703,-99999.0,'11111222,11111222,99999999' 
TABS,ioos:station:wmo:42051:1,1999-09-02T22:00:00Z,29.6350,-93.6417,2.0,295.1064661,25.99600931,-99999.0,'11111222,11111222,99999999' 
TABS,ioos:station:wmo:42051:1,1999-09-02T22:30:00Z,29.6350,-93.6417,2.0,295.619953,24.12151322,-99999.0,'11111222,11111222,99999999' 
TABS,ioos:station:wmo:42051:1,1999-09-02T23:00:00Z,29.6350,-93.6417,2.0,289.5482073,21.81750673,-99999.0,'11111222,11111222,99999999' 
TABS,ioos:station:wmo:42051:1,1999-09-02T23:30:00Z,29.6350,-93.6417,2.0,284.7020563,18.79535315,-99999.0,'11111222,11111222,99999999' 
TABS,ioos:station:wmo:42051:1,1999-09-03T00:00:00Z,29.6350,-93.6417,2.0,285.0292786,16.65984694,-99999.0,'11111222,11111222,99999999' 
TABS,ioos:station:wmo:42051:1,1999-09-03T00:30:00Z,29.6350,-93.6417,2.0,280.4931485,16.36363346,-99999.0,'11111222,11111222,99999999' 
TABS,ioos:station:wmo:42051:1,1999-09-03T01:00:00Z,29.6350,-93.6417,2.0,267.3663335,16.10700779,-99999.0,'11111222,11111222,99999999' 
TABS,ioos:station:wmo:42051:1,1999-09-03T01:30:00Z,29.6350,-93.6417,2.0,266.7345743,20.89391538,-99999.0,'11111222,11111222,99999999' 
TABS,ioos:station:wmo:42051:1,1999-09-03T02:00:00Z,29.6350,-93.6417,2.0,264.0011216,22.77469868,-99999.0,'11111222,11111222,99999999' 
TABS,ioos:station:wmo:42051:1,1999-09-03T02:30:00Z,29.6350,-93.6417,2.0,259.7724306,18.47351618,-99999.0,'11111222,11111222,99999999' 
TABS,ioos:station:wmo:42051:1,1999-09-03T03:00:00Z,29.6350,-93.6417,2.0,252.3554309,16.72687957,-99999.0,'11111222,11111222,99999999' 
TABS,ioos:station:wmo:42051:1,1999-09-03T03:30:00Z,29.6350,-93.6417,2.0,246.61323,12.0172293,-99999.0,'11111222,11111222,99999999' 
TABS,ioos:station:wmo:42051:1,1999-09-03T04:00:00Z,29.6350,-93.6417,2.0,247.2058569,11.1508206,-99999.0,'11111222,11111222,99999999' 
TABS,ioos:station:wmo:42051:1,1999-09-03T04:30:00Z,29.6350,-93.6417,2.0,244.4857683,10.72598713,-99999.0,'11111222,11111222,99999999' 
TABS,ioos:station:wmo:42051:1,1999-09-03T05:00:00Z,29.6350,-93.6417,2.0,237.4144093,10.78815091,-99999.0,'11111222,11111222,99999999' 
TABS,ioos:station:wmo:42051:1,1999-09-03T05:30:00Z,29.6350,-93.6417,2.0,230.6433202,9.635071354,-99999.0,'11133222,11111222,99999999' 
TABS,ioos:station:wmo:42051:1,1999-09-03T06:00:00Z,29.6350,-93.6417,2.0,244.5997645,6.597764773,-99999.0,'11133222,11111222,99999999' 
TABS,ioos:station:wmo:42051:1,1999-09-03T06:30:00Z,29.6350,-93.6417,2.0,214.8511461,8.347179164,-99999.0,'11133222,11111222,99999999' 
TABS,ioos:station:wmo:42051:1,1999-09-03T07:00:00Z,29.6350,-93.6417,2.0,212.3493883,7.232496111,-99999.0,'11133222,11111222,99999999' 
TABS,ioos:station:wmo:42051:1,1999-09-03T07:30:00Z,29.6350,-93.6417,2.0,212.6159229,6.363528895,-99999.0,'11133222,11111222,99999999' 
TABS,ioos:station:wmo:42051:1,1999-09-03T08:00:00Z,29.6350,-93.6417,2.0,227.2288591,5.271935129,-99999.0,'11133222,11111222,99999999' 
TABS,ioos:station:wmo:42051:1,1999-09-03T08:30:00Z,29.6350,-93.6417,2.0,228.7116494,3.167412193,-99999.0,'11133222,11111222,99999999' 
TABS,ioos:station:wmo:42051:1,1999-09-03T09:00:00Z,29.6350,-93.6417,2.0,189.0347634,2.865554048,-99999.0,'11133222,11111222,99999999' 
TABS,ioos:station:wmo:42051:1,1999-09-03T09:30:00Z,29.6350,-93.6417,2.0,196.489553,4.192433661,-99999.0,'11133222,11111222,99999999' 
TABS,ioos:station:wmo:42051:1,1999-09-03T10:00:00Z,29.6350,-93.6417,2.0,204.6436324,2.134408583,-99999.0,'11133222,11111222,99999999' 
TABS,ioos:station:wmo:42051:1,1999-09-03T10:30:00Z,29.6350,-93.6417,2.0,189.0347634,2.865554048,-99999.0,'11133222,11111222,99999999' 
TABS,ioos:station:wmo:42051:1,1999-09-03T11:00:00Z,29.6350,-93.6417,2.0,184.1048785,2.095375861,-99999.0,'11133222,11111222,99999999' 
TABS,ioos:station:wmo:42051:1,1999-09-03T11:30:00Z,29.6350,-93.6417,2.0,167.3804968,2.746343023,-99999.0,'11133222,11111222,99999999' 
TABS,ioos:station:wmo:42051:1,1999-09-03T12:00:00Z,29.6350,-93.6417,2.0,190.0852423,2.569708155,-99999.0,'11133222,11111222,99999999' 
TABS,ioos:station:wmo:42051:1,1999-09-03T12:30:00Z,29.6350,-93.6417,2.0,173.6126875,1.348369386,-99999.0,'11133222,11111222,99999999' 
TABS,ioos:station:wmo:42051:1,1999-09-03T13:00:00Z,29.6350,-93.6417,2.0,200.8161286,3.348581789,-99999.0,'11133222,11111222,99999999' 
TABS,ioos:station:wmo:42051:1,1999-09-03T13:30:00Z,29.6350,-93.6417,2.0,224.9996843,4.638620485,-99999.0,'11133222,11111222,99999999' 
TABS,ioos:station:wmo:42051:1,1999-09-03T14:00:00Z,29.6350,-93.6417,2.0,222.9162829,8.752696727,-99999.0,'11133222,11111222,99999999' 
TABS,ioos:station:wmo:42051:1,1999-09-03T14:30:00Z,29.6350,-93.6417,2.0,222.9750971,11.80898387,-99999.0,'11111222,11111222,99999999' 
TABS,ioos:station:wmo:42051:1,1999-09-03T15:00:00Z,29.6350,-93.6417,2.0,226.7443401,13.70301062,-99999.0,'11111222,11111222,99999999' 
TABS,ioos:station:wmo:42051:1,1999-09-03T15:30:00Z,29.6350,-93.6417,2.0,234.954268,15.83002527,-99999.0,'11111222,11111222,99999999' 
TABS,ioos:station:wmo:42051:1,1999-09-03T16:00:00Z,29.6350,-93.6417,2.0,228.4079326,15.93809273,-99999.0,'11111222,11111222,99999999' 
TABS,ioos:station:wmo:42051:1,1999-09-03T16:30:00Z,29.6350,-93.6417,2.0,234.6956421,16.24806758,-99999.0,'11111222,11111222,99999999' 
TABS,ioos:station:wmo:42051:1,1999-09-03T17:00:00Z,29.6350,-93.6417,2.0,236.5018166,13.22690062,-99999.0,'11111222,11111222,99999999' 
TABS,ioos:station:wmo:42051:1,1999-09-03T17:30:00Z,29.6350,-93.6417,2.0,239.4145329,11.41862514,-99999.0,'11111222,11111222,99999999' 
TABS,ioos:station:wmo:42051:1,1999-09-03T18:00:00Z,29.6350,-93.6417,2.0,235.2497277,11.24569695,-99999.0,'11111222,11111222,99999999' 
TABS,ioos:station:wmo:42051:1,1999-09-03T18:30:00Z,29.6350,-93.6417,2.0,230.5916656,12.9166714,-99999.0,'11111222,11111222,99999999' 
TABS,ioos:station:wmo:42051:1,1999-09-03T19:00:00Z,29.6350,-93.6417,2.0,220.9065285,19.11943775,-99999.0,'11111222,11111222,99999999' 
TABS,ioos:station:wmo:42051:1,1999-09-03T19:30:00Z,29.6350,-93.6417,2.0,229.6615465,18.18330278,-99999.0,'11111222,11111222,99999999' 
TABS,ioos:station:wmo:42051:1,1999-09-03T20:00:00Z,29.6350,-93.6417,2.0,235.9671021,14.38363306,-99999.0,'11111222,11111222,99999999' 
TABS,ioos:station:wmo:42051:1,1999-09-03T20:30:00Z,29.6350,-93.6417,2.0,239.5291621,11.7532336,-99999.0,'11111222,11111222,99999999' 
TABS,ioos:station:wmo:42051:1,1999-09-03T21:00:00Z,29.6350,-93.6417,2.0,241.7304289,13.53419743,-99999.0,'11111222,11111222,99999999' 
TABS,ioos:station:wmo:42051:1,1999-09-03T21:30:00Z,29.6350,-93.6417,2.0,250.1583524,9.663669075,-99999.0,'11133222,11111222,99999999' 
TABS,ioos:station:wmo:42051:1,1999-09-03T22:00:00Z,29.6350,-93.6417,2.0,257.1454918,10.69809796,-99999.0,'11111222,11111222,99999999' 
TABS,ioos:station:wmo:42051:1,1999-09-03T22:30:00Z,29.6350,-93.6417,2.0,266.6485943,15.22603363,-99999.0,'11111222,11111222,99999999' 
TABS,ioos:station:wmo:42051:1,1999-09-03T23:00:00Z,29.6350,-93.6417,2.0,261.8530141,14.74883385,-99999.0,'11111222,11111222,99999999' 
TABS,ioos:station:wmo:42051:1,1999-09-03T23:30:00Z,29.6350,-93.6417,2.0,279.8485672,13.91504581,-99999.0,'11111222,11111222,99999999' 
TABS,ioos:station:wmo:42051:1,1999-09-04T00:00:00Z,29.6350,-93.6417,2.0,270.0004209,11.77,-99999.0,'11111222,11111222,99999999' 
TABS,ioos:station:wmo:42051:1,1999-09-04T02:30:00Z,29.6350,-93.6417,2.0,271.5052144,17.13590966,-99999.0,'11111222,11111222,99999999' 
TABS,ioos:station:wmo:42051:1,1999-09-04T03:00:00Z,29.6350,-93.6417,2.0,268.7596072,13.86324637,-99999.0,'11111222,11111222,99999999' 
TABS,ioos:station:wmo:42051:1,1999-09-04T03:30:00Z,29.6350,-93.6417,2.0,252.0581491,10.64778381,-99999.0,'11111222,11111222,99999999' 
TABS,ioos:station:wmo:42051:1,1999-09-04T04:00:00Z,29.6350,-93.6417,2.0,252.8229561,13.10447633,-99999.0,'11111222,11111222,99999999' 
TABS,ioos:station:wmo:42051:1,1999-09-04T04:30:00Z,29.6350,-93.6417,2.0,249.08093,16.27255665,-99999.0,'11111222,11111222,99999999' 
TABS,ioos:station:wmo:42051:1,1999-09-04T05:00:00Z,29.6350,-93.6417,2.0,269.455305,15.79071246,-99999.0,'11111222,11111222,99999999' 
TABS,ioos:station:wmo:42051:1,1999-09-04T05:30:00Z,29.6350,-93.6417,2.0,256.3892994,10.11401503,-99999.0,'11111222,11111222,99999999' 
TABS,ioos:station:wmo:42051:1,1999-09-04T06:00:00Z,29.6350,-93.6417,2.0,231.6573764,8.172698453,-99999.0,'11133222,11111222,99999999' 
TABS,ioos:station:wmo:42051:1,1999-09-04T06:30:00Z,29.6350,-93.6417,2.0,236.0217783,7.729844759,-99999.0,'11133222,11111222,99999999' 
TABS,ioos:station:wmo:42051:1,1999-09-04T07:00:00Z,29.6350,-93.6417,2.0,246.0569854,5.864639801,-99999.0,'11133222,11111222,99999999' 
TABS,ioos:station:wmo:42051:1,1999-09-04T07:30:00Z,29.6350,-93.6417,2.0,205.5537839,3.801907416,-99999.0,'11133222,11111222,99999999' 
TABS,ioos:station:wmo:42051:1,1999-09-04T08:00:00Z,29.6350,-93.6417,2.0,208.8252752,3.40147027,-99999.0,'11133222,11111222,99999999' 
TABS,ioos:station:wmo:42051:1,1999-09-04T08:30:00Z,29.6350,-93.6417,2.0,241.9138239,2.527647127,-99999.0,'11133222,11111222,99999999' 
TABS,ioos:station:wmo:42051:1,1999-09-04T09:00:00Z,29.6350,-93.6417,2.0,260.4679558,2.717517249,-99999.0,'11133222,11111222,99999999' 
TABS,ioos:station:wmo:42051:1,1999-09-04T09:30:00Z,29.6350,-93.6417,2.0,196.0905683,1.08240473,-99999.0,'11133222,11111222,99999999' 
TABS,ioos:station:wmo:42051:1,1999-09-04T10:00:00Z,29.6350,-93.6417,2.0,179.9997895,0.89,-99999.0,'11133222,11111222,99999999' 
TABS,ioos:station:wmo:42051:1,1999-09-04T10:30:00Z,29.6350,-93.6417,2.0,105.0592384,2.309307255,-99999.0,'11133222,11111222,99999999' 
TABS,ioos:station:wmo:42051:1,1999-09-04T11:00:00Z,29.6350,-93.6417,2.0,350.4860122,1.814965564,-99999.0,'11133222,11111222,99999999' 
TABS,ioos:station:wmo:42051:1,1999-09-04T11:30:00Z,29.6350,-93.6417,2.0,148.6957392,0.866083137,-99999.0,'11133222,11111222,99999999' 
TABS,ioos:station:wmo:42051:1,1999-09-04T12:00:00Z,29.6350,-93.6417,2.0,224.9996843,0.848528137,-99999.0,'11133222,11111222,99999999' 
TABS,ioos:station:wmo:42051:1,1999-09-04T12:30:00Z,29.6350,-93.6417,2.0,247.5390476,1.936930561,-99999.0,'11133222,11111222,99999999' 
TABS,ioos:station:wmo:42051:1,1999-09-04T13:00:00Z,29.6350,-93.6417,2.0,248.7904025,2.874717377,-99999.0,'11133222,11111222,99999999' 
TABS,ioos:station:wmo:42051:1,1999-09-04T13:30:00Z,29.6350,-93.6417,2.0,229.4209634,2.751763071,-99999.0,'11133222,11111222,99999999' 
TABS,ioos:station:wmo:42051:1,1999-09-04T14:00:00Z,29.6350,-93.6417,2.0,270.0004209,1.19,-99999.0,'11133222,11111222,99999999' 
TABS,ioos:station:wmo:42051:1,1999-09-04T14:30:00Z,29.6350,-93.6417,2.0,228.8478548,1.580411339,-99999.0,'11133222,11111222,99999999' 
TABS,ioos:station:wmo:42051:1,1999-09-04T15:00:00Z,29.6350,-93.6417,2.0,0.000210459,0.6,-99999.0,'11133222,11111222,99999999' 
TABS,ioos:station:wmo:42051:1,1999-09-04T15:30:00Z,29.6350,-93.6417,2.0,83.23762614,2.547724475,-99999.0,'11133222,11111222,99999999' 
TABS,ioos:station:wmo:42051:1,1999-09-04T16:00:00Z,29.6350,-93.6417,2.0,132.6970212,2.639640127,-99999.0,'11133222,11111222,99999999' 
TABS,ioos:station:wmo:42051:1,1999-09-04T16:30:00Z,29.6350,-93.6417,2.0,113.3977092,1.133181362,-99999.0,'11133222,11111222,99999999' 
TABS,ioos:station:wmo:42051:1,1999-09-04T17:00:00Z,29.6350,-93.6417,2.0,134.9998948,2.319310242,-99999.0,'11133222,11111222,99999999' 
TABS,ioos:station:wmo:42051:1,1999-09-04T17:30:00Z,29.6350,-93.6417,2.0,67.93215204,0.798498591,-99999.0,'11133222,11111222,99999999' 
TABS,ioos:station:wmo:42051:1,1999-09-04T18:00:00Z,29.6350,-93.6417,2.0,146.2505499,2.681976883,-99999.0,'11133222,11111222,99999999' 